map of BFH home
BFH - Airport
Location
City:  Curitiba, Paraná, Brazil
Name:Bacacheri Airport
ICAO:SBBI
IATA:BFH

Details
Type:Airport (Aerodrome, Airfield)
Use:Public/Civil, Military
Latitude:25°24'18"S (-25.405077)
Longitude:49°13'55"W (-49.232035)
Datum:WGS 1984
Elevation:3057 ft (932 m)
Variation:19.77°W (WMM2015 magnetic declination)
-0.14° annual change
Runways:1
Longest:4560 × 98 ft (1390 × 30 m), paved

Time
Time Zone:UTC-3 (DST-2)
Local Time:

Weather
METAR:SBBI 160900Z 30006KT CAVOK 21/19 Q1019
TAF:SBBI 160200Z 1606/1618 31005KT 9999 FEW020 TN20/1608Z TX31/1617Z
BECMG 1612/1614 29010KT FEW030
RMK PDW

Related Locations
Nearby:
Farthest:MMD: 12392 mi / 19944 km
Minamidaito [Minami Daito Airport], Minamidaito Jima, 47, JP

Find:

   beyond  
but within

Other Information
Maps:
NOTAMs:
Links:
Sources:

  
  • flag of Brazil
  • flag of Paraná
  • flag of Curitiba
  

Sectional Chart

Flight Planning
at skyvector.com

Satellite Image

Google Maps Satellite view

 

Copyright © 2004-2019 Karl L. Swartz. All rights reserved.
The Great Circle Mapper name and logo are trademarks of the Great Circle Mapper.
All other trademarks mentioned herein belong to their respective owners.
Please see credits for attibutions and further copyright information.

  Follow gcmap on Facebook Follow gcmap on Twitter Follow gcmap on Google+ GCmap on LinkedIn

hCard Microformat

Geo Microformat